Погода в Емце

Россия / Архангельская область     63°04′18″N   40°20′02″E
темп.,
°C
ветер,
м/с
пор.,
м/с
влажн.,
%
обл.,
%
осадки,
мм/ч
давл.,
гПа
погр.,
м
23 апреля, пт
пт2300:00+3юз4884100 0.0 1012799
03:00+3ю278947 0.1 1013266
06:00+2ююв259515 0.0 1013162
09:00+8ююв367341 0.0 1013483
12:00+13ююв585424 0.0 10121362
15:00+14ююв5955100 0.6 10111681
18:00+13ююв4106698 1.3 1010953
21:00+10ююв41376100 1.5 1010582
24 апреля, сб
сб2400:00+9юв41284100 0.1 1010496
03:00+9ююв4118796 0.1 1010588
06:00+8ююв41089100 0.0 1011611
09:00+11ююв487486 0.0 1010932
12:00+14юв6115686 0.8 10091773
15:00+16юв5104669 1.4 10082295
18:00+13юв511565 0.4 10081521
21:00+10вюв512655 0.4 1007702
25 апреля, вс
вс2500:00+8вюв412735 0.0 1007567
03:00+6в4118399 0.0 1006457
06:00+5в41086100 0.0 1006507
09:00+7в4776100 0.0 1005645
12:00+7в4784100 0.2 10041096
15:00+6всв3791100 0.8 1004900
18:00+6всв3790100 0.5 1004868
21:00+6всв3787100 0.6 1003393
26 апреля, пн
пн2600:00+4св3592100 0.3 1003591
03:00+4св2598100 1.1 1002804
06:00+4св2696100 0.8 1002716
09:00+5св2594100 0.9 1002719
12:00+6св2483100 0.1 1002721
15:00+6всв2491100 0.8 1002857
18:00+5в0193100 0.9 1002174
21:00+4ссв1197100 1.4 100255
27 апреля, вт
вт2700:00+4ссв1397100 0.4 1002399
03:00+4с1399100 1.1 1001459
06:00+4с1499100 0.8 1000682
09:00+4ссв1398100 1.7 1000747
12:00+3с2497100 1.3 1001623
15:00+2ссз3798100 2.4 1002393
18:00+2ссз3896100 0.6 1002569
21:00+1ссз3897100 0.8 1002516